Regional Weather Roundup
Issued by NWS

Home | Current Version | Previous Version | Text Only | Print | Product List | Glossary On
Versions: 1 2 3 4 5 6 7 8 9 10 11 12 13 14 15 16 17 18 19 20 21 22 23 24 25 26 27 28 29 30 31 32 33 34 35 36 37 38 39 40 41 42 43 44 45 46 47 48 49 50
000
ASUS45 KCYS 301510
RWRWY

WYOMING REGIONAL WEATHER ROUNDUP
NATIONAL WEATHER SERVICE CHEYENNE WY
900 AM MDT SAT AUG 30 2014

NOTE:  "FAIR" INDICATES FEW OR NO CLOUDS BELOW 12,000 FEET
WITH NO SIGNIFICANT WEATHER AND/OR OBSTRUCTIONS TO VISIBILITY.

WYZ001-301600-
YELLOWSTONE NATIONAL PARK

CITY           SKY/WX    TMP DP  RH WIND       PRES   REMARKS
LK YELLOWSTONE   N/A     52  46  80 CALM      30.11F
W YELLOWSTONE  NOT AVBL

$$
WYZ002>013-054>058-071-098>099-301600-
NORTHERN WYOMING

CITY           SKY/WX    TMP DP  RH WIND       PRES   REMARKS
JACKSON        NOT AVBL
CODY           PTSUNNY   64  48  55 W3        29.89R
GREYBULL       PTSUNNY   66  48  52 NW5       29.82F
WORLAND        CLOUDY    73  46  38 S13       29.82F
SHERIDAN       CLOUDY    59  52  77 N3        29.81F
BUFFALO        CLOUDY    66  48  52 S5        29.88F
GILLETTE       SUNNY     65  52  62 S21       29.88S
HULETT         FAIR      72  50  46 MISG      29.90
NEWCASTLE      FAIR      68  46  45 MISG      29.94

$$
WYZ014>020-022>026-101>103-301600-
CENTRAL WYOMING

CITY           SKY/WX    TMP DP  RH WIND       PRES   REMARKS
BIG PINEY      MOSUNNY   52  44  74 CALM      30.09F
PINEDALE       PTSUNNY   54  43  66 E6        30.10F
DUBOIS         FAIR      54  41  62 CALM      30.04S
LANDER         PTSUNNY   62  47  57 VRB3      29.93F
RIVERTON       PTSUNNY   63  41  44 S10       29.94F
CASPER         SUNNY     72  40  31 SW22G28   29.97F
DOUGLAS        SUNNY     64  53  67 SE5       29.98F

$$
WYZ021-027>030-104>119-301600-
SOUTHERN WYOMING

CITY           SKY/WX    TMP DP  RH WIND       PRES   REMARKS
EVANSTON       MOSUNNY   63  42  46 SW16      30.12R
KEMMERER       MOSUNNY   61  43  51 CALM      30.12S
FORT BRIDGER   FAIR      65  42  42 W7        30.14R
ROCK SPRINGS   PTSUNNY   63  40  42 S7        30.08F
DIXON          FAIR      59  48  66 CALM      30.17F
RAWLINS        MOSUNNY   67  38  34 SW18      30.11F
SARATOGA       FAIR      61  43  51 SE12      30.15F
LARAMIE        SUNNY     61  43  51 SW14      30.17F
CHEYENNE       SUNNY     65  50  58 SW7       30.10F
TORRINGTON     SUNNY     65  53  65 SE8       29.96F
PINE BLUFFS    FAIR      64  52  63 SW7       30.06F

$$



USA.gov is the U.S. government's official web portal to all federal, state and local government web resources and services.